[[{"header":{"parameterUnit":"m.s-1","parameterCategory":1,"la1":30.2991,"la2":30.254,"lo1":-89.0895,"lo2":-89.0444,"dy":0.0017,"dx":0.0017,"nx":28,"ny":28,"refTime":"2025-04-16T09:00:00:Z","depth":0,"parameterNumber":2,"parameterNumberName":"U-component_of_WINDS"},"data":[0,0,0,0,0,0,0,0,0,0,0,0,0,0,0,0,0,0,0,0,0,0,0,0,0,0,0,0,0,0,0,0,0,0,0,0,0,0,0,0,0,0,0,0,0,0,0,0,0,0,0,0,0,0,0,0,0,0,-2.8621,-2.8621,0,-2.8629,-2.8629,-2.863,-2.8619,-2.8618,-2.8618,-2.8618,-2.8626,-2.8627,-2.8627,0,0,0,0,0,0,0,0,0,0,0,0,0,-2.8597,-2.8597,-2.8621,-2.8621,-2.8621,-2.8629,-2.8629,-2.863,-2.8619,-2.8618,-2.8618,-2.8618,-2.8626,-2.8627,-2.8627,0,0,0,0,0,0,0,0,0,0,0,0,0,-2.8606,-2.8597,-2.8621,-2.8617,-2.8616,-2.8629,-2.8629,-2.863,-2.8619,-2.8618,-2.8618,-2.8617,-2.8626,-2.8627,-2.8627,-2.8645,0,0,-2.863,-2.863,0,0,0,0,0,0,0,0,-2.8606,-2.8607,-2.8617,-2.8617,-2.8617,-2.8622,-2.8624,-2.8635,-2.8619,-2.8618,-2.8618,-2.8617,-2.8625,-2.8626,-2.8629,-2.8645,-2.8645,-2.863,-2.8631,-2.8631,-2.8631,0,0,0,0,0,0,0,-2.8605,-2.8607,-2.8624,-2.8617,-2.8617,-2.8615,-2.8616,-2.8626,-2.8625,-2.8618,-2.8617,-2.8619,-2.8625,-2.8628,-2.8629,-2.8645,-2.863,-2.8631,-2.8631,-2.8632,-2.8677,-2.8678,0,0,0,0,0,0,-2.8605,-2.8606,-2.8624,-2.8624,-2.861,-2.8616,-2.8617,-2.8621,-2.8625,-2.8625,-2.8619,-2.8618,-2.8627,-2.8628,-2.8629,-2.865,-2.8631,-2.8632,-2.8632,-2.8676,-2.8677,-2.8678,0,0,0,0,0,0,-2.8604,-2.8607,-2.8624,-2.8615,-2.8617,-2.8617,-2.8622,-2.8622,-2.8625,-2.8625,-2.8625,-2.8622,-2.8627,-2.8628,-2.8641,-2.865,-2.8632,-2.8633,-2.8676,-2.8677,-2.8678,-2.8691,0,0,0,0,0,0,-2.8604,-2.8606,-2.8612,-2.8615,-2.8618,-2.8635,-2.8623,-2.8622,-2.8626,-2.8625,-2.8628,-2.8628,-2.8626,-2.864,-2.8642,-2.8651,-2.8634,-2.8675,-2.8676,-2.8677,-2.869,-2.8692,-2.8695,0,0,0,0,0,-2.8603,-2.8616,-2.8613,-2.8615,-2.8625,-2.8635,-2.8637,-2.8634,-2.8627,-2.8633,-2.8634,-2.8628,-2.8649,-2.8641,-2.8644,-2.8653,-2.8674,-2.8676,-2.8677,-2.8689,-2.8692,-2.8695,0,0,0,0,0,0,-2.8613,-2.8616,-2.8613,-2.8627,-2.8631,-2.8633,-2.8641,-2.8637,-2.8643,-2.8642,-2.8638,-2.8639,-2.8653,-2.8655,-2.8646,-2.8671,-2.8661,-2.8663,-2.8669,-2.8672,-2.8674,-2.8673,-2.8634,0,0,0,0,0,-2.8617,-2.8625,-2.8627,-2.8639,-2.8642,-2.8641,-2.8645,-2.8643,-2.8647,-2.8649,-2.865,-2.8655,-2.8663,-2.8667,-2.8674,-2.8691,-2.8692,-2.8699,-2.8701,-2.8703,-2.8704,-2.8714,-2.8717,-2.8683,-2.8683,-2.8683,0,0,-2.8625,-2.8628,-2.8632,-2.8641,-2.8644,-2.8653,-2.8643,-2.8652,-2.8658,-2.865,-2.8662,-2.8664,-2.8669,-2.8684,-2.8691,-2.8685,-2.8714,-2.8705,-2.8707,-2.8707,-2.8716,-2.8719,-2.8722,-2.8684,-2.8684,-2.8684,0,0,-2.8644,-2.8647,-2.8657,-2.8661,-2.8666,-2.8666,-2.8669,-2.8672,-2.8673,-2.8686,-2.868,-2.8688,-2.8701,-2.8705,-2.8709,-2.8732,-2.8726,-2.8734,-2.8746,-2.8755,-2.8758,-2.876,-2.8768,-2.8771,-2.8736,-2.8736,-2.8736,0,-2.8653,-2.8665,-2.8663,-2.8673,-2.8677,-2.8672,-2.8683,-2.8687,-2.8694,-2.8697,-2.8692,-2.8709,-2.8712,-2.8728,-2.8733,-2.8737,-2.874,-2.8733,-2.8758,-2.876,-2.8762,-2.877,-2.8773,-2.8737,-2.8737,-2.8737,-2.8737,0,-2.8676,-2.8685,-2.8693,-2.87,-2.8706,-2.8716,-2.8717,-2.8723,-2.8721,-2.8722,-2.8735,-2.8739,-2.8747,-2.8751,-2.8749,-2.8767,-2.8764,-2.8758,-2.8748,-2.8766,-2.8773,-2.8776,-2.8738,-2.8738,-2.8737,-2.8737,0,0,-2.8699,-2.8707,-2.871,-2.8713,-2.872,-2.8726,-2.8738,-2.8746,-2.8751,-2.8757,-2.8766,-2.8778,-2.8774,-2.8778,-2.8777,-2.8785,-2.8803,-2.8779,-2.8779,-2.8783,-2.8824,-2.8827,-2.883,-2.8801,-2.8801,-2.8802,-2.8823,0,-2.8718,-2.8736,-2.8736,-2.8753,-2.8761,-2.8757,-2.8767,-2.8772,-2.8774,-2.8782,-2.8784,-2.8793,-2.8786,-2.8789,-2.8797,-2.8799,-2.8811,-2.8798,-2.8809,-2.8809,-2.8806,-2.8834,-2.8837,-2.8857,-2.8826,-2.8826,-2.8827,0,-2.8741,-2.8748,-2.8766,-2.8772,-2.8776,-2.8784,-2.8792,-2.88,-2.8806,-2.8807,-2.8813,-2.8811,-2.8823,-2.8814,-2.883,-2.8821,-2.8826,-2.8828,-2.8829,-2.8829,-2.8818,-2.8833,-2.8863,-2.8866,-2.8831,-2.8831,-2.883,0,-2.8756,-2.877,-2.8783,-2.8786,-2.8793,-2.88,-2.8803,-2.8809,-2.8814,-2.8822,-2.8825,-2.8834,-2.8839,-2.8846,-2.8847,-2.884,-2.8864,-2.8855,-2.8865,-2.8865,-2.8868,-2.8868,-2.8898,-2.8873,-2.8873,-2.8873,-2.8873,0,-2.8776,-2.8787,-2.8789,-2.8797,-2.881,-2.881,-2.8823,-2.8826,-2.8831,-2.884,-2.8838,-2.8846,-2.8847,-2.8856,-2.8857,-2.8871,-2.8873,-2.8874,-2.8874,-2.8874,-2.8873,-2.8876,-2.8874,-2.8874,-2.8874,-2.8874,-2.8874,0,-2.8793,-2.8795,-2.8809,-2.8816,-2.8818,-2.8827,-2.8832,-2.884,-2.8843,-2.8854,-2.8856,-2.886,-2.8871,-2.8873,-2.8885,-2.8886,-2.8902,-2.8901,-2.8899,-2.8899,-2.8909,-2.8907,-2.894,-2.8945,-2.8918,-2.8918,-2.8919,0,-2.8805,-2.8814,-2.8822,-2.8827,-2.8831,-2.884,-2.8846,-2.8848,-2.8854,-2.8863,-2.8869,-2.888,-2.8888,-2.8905,-2.8909,-2.8919,-2.8917,-2.8929,-2.8919,-2.8918,-2.8917,-2.8916,-2.8917,-2.893,-2.893,-2.893,-2.893,0,-2.8826,-2.8827,-2.8836,-2.8845,-2.8852,-2.8859,-2.8866,-2.8871,-2.8874,-2.8881,-2.8892,-2.8898,-2.8911,-2.8922,-2.8932,-2.8936,-2.8934,-2.8934,-2.8937,-2.8936,-2.8934,-2.8935,-2.8903,-2.8933,-2.8932,-2.8932,-2.8932,-2.8932,-2.8841,-2.8849,-2.8856,-2.8865,-2.8871,-2.8878,-2.8886,-2.889,-2.8899,-2.8909,-2.891,-2.8922,-2.8929,-2.8943,-2.8948,-2.8957,-2.8954,-2.8958,-2.8959,-2.8959,-2.896,-2.8934,-2.8959,-2.8959,-2.8959,-2.8959,-2.8959,0,-2.8862,-2.8867,-2.8876,-2.8886,-2.8893,-2.8892,-2.89,-2.8906,-2.8917,-2.8924,-2.8932,-2.8945,-2.8956,-2.8962,-2.8972,-2.8979,-2.8978,-2.8982,-2.8981,-2.8982,-2.8963,-2.8959,-2.8982,-2.8982,-2.8982,-2.8982,-2.8982,-2.8982,-2.8874,-2.8886,-2.8889,-2.8905,-2.8909,-2.8921,-2.8926,-2.8932,-2.8938,-2.8953,-2.8962,-2.8965,-2.8972,-2.8984,-2.8993,-2.8995,-2.8999,-2.9002,-2.9003,-2.8985,-2.8983,-2.8981,-2.8977,-2.9003,-2.9003,-2.9021,-2.9021,-2.9022]},{"header":{"parameterUnit":"m.s-1","parameterCategory":1,"la1":30.2991,"la2":30.254,"lo1":-89.0895,"lo2":-89.0444,"dy":0.0017,"dx":0.0017,"nx":28,"ny":28,"refTime":"2025-04-16T09:00:00:Z","depth":0,"parameterNumber":3,"parameterNumberName":"V-component_of_WINDS"},"data":[0,0,0,0,0,0,0,0,0,0,0,0,0,0,0,0,0,0,0,0,0,0,0,0,0,0,0,0,0,0,0,0,0,0,0,0,0,0,0,0,0,0,0,0,0,0,0,0,0,0,0,0,0,0,0,0,0,0,5.2381,5.2381,0,5.2398,5.2398,5.2398,5.2407,5.2407,5.2407,5.2407,5.2421,5.2421,5.2422,0,0,0,0,0,0,0,0,0,0,0,0,0,5.2355,5.2355,5.2381,5.2381,5.2381,5.2397,5.2398,5.2398,5.2407,5.2407,5.2407,5.2407,5.2421,5.2421,5.2422,0,0,0,0,0,0,0,0,0,0,0,0,0,5.2368,5.2356,5.2381,5.2388,5.2388,5.2397,5.2398,5.2398,5.2407,5.2407,5.2407,5.2407,5.2421,5.2421,5.2422,5.2425,0,0,5.2424,5.2424,0,0,0,0,0,0,0,0,5.2368,5.2369,5.2386,5.2387,5.2388,5.24,5.2394,5.2407,5.2407,5.24,5.2407,5.2407,5.2414,5.2415,5.2418,5.2425,5.2426,5.2424,5.2424,5.2424,5.2424,0,0,0,0,0,0,0,5.2367,5.2369,5.2387,5.2387,5.2388,5.2389,5.2391,5.2396,5.2406,5.24,5.2401,5.2403,5.2414,5.2417,5.2418,5.2426,5.2424,5.2424,5.2424,5.2425,5.2438,5.2438,0,0,0,0,0,0,5.2365,5.2368,5.2387,5.2388,5.2378,5.239,5.2392,5.2396,5.2406,5.2408,5.2403,5.2403,5.2416,5.2418,5.2419,5.2424,5.2424,5.2425,5.2425,5.2438,5.2438,5.2438,0,0,0,0,0,0,5.2364,5.2367,5.2386,5.2378,5.2381,5.239,5.2395,5.2396,5.24,5.2408,5.241,5.2404,5.2417,5.2418,5.2424,5.2424,5.2425,5.2425,5.2438,5.2438,5.2438,5.2432,0,0,0,0,0,0,5.2364,5.2366,5.2368,5.2378,5.2381,5.2391,5.2395,5.2397,5.2401,5.2401,5.241,5.2412,5.2417,5.2423,5.2424,5.2425,5.2426,5.2438,5.2438,5.2438,5.2432,5.2432,5.2432,0,0,0,0,0,5.2363,5.2365,5.2368,5.237,5.2383,5.2391,5.2393,5.2399,5.2401,5.2402,5.2408,5.2411,5.2424,5.2423,5.2425,5.2426,5.2438,5.2438,5.2438,5.2433,5.2432,5.2432,0,0,0,0,0,0,5.2352,5.2366,5.237,5.2375,5.2382,5.2392,5.2394,5.2399,5.2404,5.2405,5.2412,5.2414,5.2419,5.2423,5.2422,5.243,5.2431,5.2431,5.2427,5.2426,5.2426,5.2425,5.2426,0,0,0,0,0,5.2351,5.2357,5.2368,5.2372,5.2376,5.2384,5.2388,5.2393,5.24,5.2402,5.2409,5.2415,5.242,5.2423,5.2429,5.2433,5.2435,5.2435,5.2434,5.2434,5.2434,5.2438,5.2438,5.2438,5.2438,5.2438,0,0,5.2348,5.2356,5.2359,5.237,5.2376,5.2382,5.2387,5.2392,5.2396,5.2403,5.2409,5.2414,5.2421,5.2426,5.2429,5.243,5.2435,5.2434,5.2434,5.2434,5.2438,5.2438,5.2438,5.2438,5.2438,5.2438,0,0,5.2345,5.2352,5.2356,5.2363,5.2372,5.2378,5.2379,5.239,5.2394,5.24,5.2406,5.241,5.2419,5.2425,5.2429,5.243,5.2433,5.2431,5.2429,5.2433,5.2433,5.2433,5.2434,5.2434,5.2431,5.2431,5.2431,0,5.234,5.2349,5.2358,5.2364,5.2369,5.2376,5.2381,5.2386,5.2397,5.24,5.2401,5.2414,5.2419,5.2426,5.2426,5.2429,5.2431,5.243,5.2432,5.2432,5.2432,5.2433,5.2434,5.2431,5.2431,5.2431,5.2431,0,5.2342,5.2349,5.2351,5.2363,5.2368,5.2373,5.2382,5.2386,5.2391,5.2397,5.2404,5.2411,5.2418,5.242,5.2424,5.2428,5.2429,5.2431,5.2433,5.2432,5.2433,5.2433,5.2431,5.2431,5.2431,5.2431,0,0,5.2332,5.235,5.2351,5.2357,5.2369,5.2373,5.2379,5.2388,5.2391,5.2398,5.2403,5.2412,5.2415,5.2419,5.2424,5.2427,5.2428,5.2429,5.2429,5.2429,5.2433,5.2432,5.2432,5.243,5.243,5.2431,5.2433,0,5.2331,5.2343,5.2352,5.236,5.2366,5.2375,5.238,5.2387,5.2393,5.2399,5.2406,5.2412,5.2414,5.2417,5.2421,5.2427,5.2429,5.2427,5.2435,5.2435,5.2433,5.2432,5.243,5.2432,5.2433,5.2433,5.2433,0,5.2332,5.234,5.235,5.2362,5.2365,5.237,5.2379,5.2385,5.2394,5.2398,5.2404,5.2409,5.2415,5.2417,5.2425,5.2424,5.2428,5.2431,5.2432,5.2433,5.2434,5.2433,5.2433,5.2433,5.2434,5.2434,5.2434,0,5.2324,5.2338,5.2346,5.235,5.2365,5.2368,5.2374,5.2383,5.2389,5.2396,5.24,5.2408,5.2412,5.2418,5.2425,5.2426,5.2433,5.2435,5.2437,5.2437,5.2438,5.2438,5.2438,5.244,5.244,5.244,5.244,0,5.2322,5.2328,5.2343,5.2347,5.2354,5.2364,5.237,5.2376,5.2385,5.2391,5.2398,5.2403,5.2412,5.2419,5.2424,5.2431,5.2433,5.2436,5.2438,5.2436,5.2435,5.2438,5.2438,5.244,5.244,5.244,5.244,0,5.2315,5.2325,5.2334,5.2348,5.2352,5.2356,5.2368,5.2372,5.2379,5.2387,5.2389,5.24,5.2408,5.2416,5.2426,5.243,5.2436,5.2438,5.2434,5.2435,5.2436,5.2436,5.2438,5.2439,5.244,5.244,5.244,0,5.2313,5.2318,5.2333,5.2338,5.2344,5.2352,5.2358,5.2368,5.2374,5.2385,5.2389,5.2398,5.2405,5.2417,5.2425,5.2433,5.2436,5.2436,5.2437,5.2435,5.2436,5.2436,5.2437,5.2436,5.2436,5.2435,5.2435,0,5.2309,5.2314,5.2323,5.2334,5.2341,5.235,5.2358,5.2362,5.2374,5.238,5.2389,5.2395,5.2406,5.2415,5.2424,5.243,5.2435,5.2435,5.2436,5.2434,5.2432,5.2434,5.2433,5.2435,5.2435,5.2435,5.2435,5.2435,5.2304,5.2309,5.2321,5.2331,5.2339,5.2348,5.2354,5.2362,5.237,5.2381,5.2386,5.2396,5.2405,5.2419,5.2424,5.2431,5.2432,5.2433,5.2434,5.2434,5.2434,5.2431,5.2433,5.2433,5.2433,5.2433,5.2433,0,5.2301,5.231,5.2319,5.2332,5.234,5.2345,5.2355,5.2361,5.237,5.2379,5.2387,5.2398,5.2406,5.2416,5.2425,5.2429,5.2431,5.2431,5.2431,5.2432,5.2432,5.243,5.2429,5.2429,5.2429,5.2429,5.2429,5.2429,5.23,5.2309,5.2316,5.233,5.2338,5.2348,5.2354,5.2362,5.237,5.2382,5.239,5.2396,5.2406,5.2416,5.2424,5.2427,5.243,5.2429,5.2432,5.2432,5.2432,5.2432,5.2431,5.243,5.243,5.2432,5.2432,5.2432]}]]